Wind_Speed
16 16 16 16 15 15 15 15 15 15 14 14 14 14 14 14 14 13 13 13 12 11 12 12 12 13 12 11 12 11 11 11 12 11 15 13 10 12 11 17 19 20 24 19 17 15 14 14 14 14 12 8 7 6 6 7 5 4 4 2 3 4 5 5 5 4 5 9 10 9 8 9 11 8 6 7 9 11 12 11 10 10 13 17 24 30 30 29
16 16 17 17 16 15 15 15 15 14 14 14 14 14 14 15 15 14 14 13 12 11 11 12 13 12 12 10 11 11 12 13 16 17 21 18 12 14 14 17 21 25 25 20 19 17 15 13 14 14 11 7 7 6 5 5 5 4 3 2 2 4 6 6 6 5 6 10 11 9 8 8 10 11 8 9 12 12 12 12 13 14 18 22 27 29 29 29
17 16 17 17 17 16 16 16 15 14 13 14 14 14 14 15 15 15 15 14 12 11 10 12 13 13 11 10 11 10 11 14 16 14 14 16 15 15 16 20 24 29 26 19 18 17 14 13 14 14 10 7 6 6 5 5 4 2 2 2 1 4 5 8 6 6 6 10 13 9 8 7 8 10 7 10 14 13 12 13 14 16 21 22 24 27 28 28
17 17 17 17 17 16 17 17 15 14 13 13 13 14 15 15 15 15 15 14 13 11 10 11 12 12 10 10 9 7 10 14 7 3 3 5 11 15 18 23 27 30 25 17 16 16 13 12 13 13 10 7 7 7 7 6 4 2 2 3 2 4 5 8 8 8 7 8 11 9 8 7 6 5 4 10 13 10 10 13 14 17 21 23 23 25 26 26
17 17 17 17 17 17 16 16 16 15 14 13 13 14 15 16 16 16 15 15 13 12 10 10 11 11 10 9 7 6 9 7 4 9 5 2 9 16 21 26 29 29 23 17 16 15 13 12 12 13 10 7 8 8 7 6 6 3 2 5 4 2 3 10 10 10 9 6 7 8 10 7 7 4 2 6 8 7 10 13 16 17 20 23 23 23 23 23
17 18 17 17 17 17 17 16 16 15 14 13 13 14 15 16 16 17 16 15 13 11 9 9 10 10 9 8 6 6 9 3 6 6 4 1 10 17 23 27 29 27 21 16 16 15 13 12 12 11 9 8 9 8 7 7 7 2 4 8 4 4 2 11 11 10 11 8 5 7 8 7 10 8 2 5 2 3 10 14 17 18 20 23 23 22 21 21
17 17 17 17 17 17 17 17 16 16 15 14 14 15 16 16 17 17 16 15 13 11 9 8 8 9 8 7 6 7 11 5 6 5 3 4 11 18 24 26 28 25 19 17 16 14 12 13 12 10 9 8 9 9 7 8 8 5 5 8 1 2 1 7 12 12 13 12 7 6 7 8 9 8 4 2 3 4 11 14 16 18 20 22 22 20 21 20
17 17 17 17 17 17 17 17 17 16 15 15 16 16 16 17 17 17 16 15 12 10 9 8 7 7 6 6 7 8 9 2 10 6 3 8 13 19 23 23 26 21 18 18 16 13 12 13 13 10 9 7 8 8 6 8 8 7 6 4 2 1 0 3 10 12 12 11 8 8 8 7 7 7 5 4 6 8 10 15 17 18 20 20 20 20 20 19
17 17 17 17 17 17 18 18 18 17 16 16 17 17 17 18 17 17 16 15 12 10 9 7 6 4 4 5 9 7 1 9 12 6 6 12 15 20 21 21 24 18 16 19 16 14 11 10 13 10 7 6 8 9 7 8 7 7 6 2 3 1 2 1 8 12 11 9 8 9 7 7 7 8 4 2 4 9 10 16 17 18 19 18 19 19 19 18
17 17 17 17 17 17 18 18 18 18 17 17 17 17 18 18 17 16 15 14 11 9 7 7 5 4 5 7 10 5 6 11 11 9 11 15 18 21 20 20 22 16 16 17 15 15 11 9 11 8 6 5 6 8 9 7 3 6 8 4 4 2 1 3 7 12 11 10 9 8 7 7 5 4 4 3 3 9 12 16 17 17 18 18 18 18 17 17
18 18 17 17 17 18 18 18 18 18 17 18 18 18 18 17 15 14 13 11 9 8 7 7 6 6 8 9 9 2 6 8 10 12 12 16 19 20 19 19 19 16 15 15 14 15 13 11 9 6 4 3 6 8 10 7 2 6 9 6 5 2 1 3 7 10 9 10 10 8 8 6 0 2 5 5 6 10 12 16 17 16 16 17 18 17 15 15
18 18 17 17 18 18 19 19 19 18 18 18 18 18 18 15 14 13 11 8 7 7 7 7 6 7 8 10 8 1 4 7 10 11 13 16 17 17 16 16 17 16 14 13 13 14 13 10 9 10 3 2 6 6 8 9 5 7 9 8 7 5 4 4 6 9 8 8 11 10 9 6 4 4 6 7 8 11 12 15 16 15 15 16 17 15 14 15
17 18 18 18 18 19 19 19 18 18 18 17 17 18 16 14 14 12 8 4 3 5 7 7 7 7 9 7 4 3 3 8 12 11 13 14 14 14 13 14 16 14 12 12 11 12 12 9 10 13 5 6 6 3 2 8 8 8 10 9 5 6 5 4 4 9 9 7 13 10 5 6 7 7 6 8 9 13 14 15 15 14 14 14 15 14 13 15
18 19 19 19 19 19 20 19 18 18 17 16 16 16 14 14 12 7 2 2 5 6 6 7 7 8 9 3 5 6 5 8 11 11 12 12 12 12 13 14 14 11 10 10 9 9 10 9 11 11 7 10 5 3 4 8 8 9 10 9 5 6 4 4 5 9 8 5 11 8 2 7 8 8 7 7 10 13 13 14 15 14 14 14 14 14 14 15
19 20 20 20 20 20 20 19 18 17 16 15 14 13 12 10 6 1 4 6 6 6 6 7 8 8 8 4 5 9 9 9 12 12 11 11 11 11 13 14 11 8 7 7 7 8 8 10 10 9 8 10 6 3 9 8 8 9 9 8 6 5 3 5 7 8 8 5 8 6 1 7 9 9 8 10 14 14 12 13 15 15 16 15 14 14 14 15
21 22 22 21 20 20 20 18 17 16 15 14 11 9 7 4 4 5 7 7 7 7 7 7 10 10 7 1 9 11 10 11 13 13 11 11 10 11 13 13 10 8 7 5 4 6 8 9 9 9 9 9 7 6 8 7 8 8 8 7 7 6 4 6 5 8 10 8 8 5 2 5 8 8 10 13 15 14 13 12 14 14 16 15 13 14 13 14
22 23 23 23 21 20 19 17 16 14 13 11 6 3 3 6 9 9 8 8 7 7 8 6 6 9 6 2 9 11 11 13 14 13 12 10 9 11 13 11 10 9 8 7 4 6 9 9 7 8 9 8 8 8 8 9 8 8 8 6 7 8 5 3 4 7 8 5 7 6 3 3 8 10 12 12 13 13 14 14 14 13 14 14 13 14 14 14
23 22 23 23 21 19 18 15 14 13 12 6 1 3 7 10 11 8 7 8 6 6 9 9 5 7 5 7 11 13 12 13 15 14 12 10 8 11 13 10 10 11 9 7 7 8 8 8 7 7 8 8 9 9 9 9 8 9 9 6 8 7 2 2 3 7 9 4 6 9 4 4 9 12 12 11 12 12 12 13 14 13 13 14 13 14 14 15
23 23 23 23 21 19 16 14 12 12 8 1 4 4 6 6 5 5 7 9 9 6 3 6 9 4 1 11 12 11 13 13 14 14 13 11 9 12 12 10 10 12 10 7 9 10 8 7 8 8 8 9 11 12 11 9 8 11 10 8 8 5 3 1 3 5 9 2 6 9 6 7 8 10 12 10 12 11 6 7 12 13 12 13 13 13 14 15
24 24 24 21 19 18 15 12 11 10 5 5 4 3 3 3 5 6 9 11 10 8 4 4 13 4 4 11 10 11 13 13 13 13 14 12 12 13 11 10 11 11 9 9 10 10 9 8 9 9 10 13 14 12 11 10 9 10 11 10 9 6 6 7 6 8 12 4 4 7 7 9 6 6 10 8 10 10 5 5 10 13 12 12 13 13 15 15
25 24 23 20 18 17 14 12 9 8 4 8 5 8 5 3 3 0 4 10 12 12 8 6 10 7 1 6 10 13 11 12 13 13 15 14 13 12 10 10 11 9 10 11 10 9 9 9 10 13 13 14 14 12 12 10 8 10 10 11 10 6 8 11 10 11 15 7 3 7 7 8 6 3 6 6 9 12 12 11 11 13 13 12 13 14 15 13
24 22 20 18 17 15 13 12 8 4 5 8 9 12 4 7 5 4 4 7 10 12 10 7 8 7 2 2 7 13 11 11 13 14 15 15 14 11 9 11 11 9 11 12 9 9 9 10 12 14 13 12 12 12 10 8 9 11 8 8 8 6 6 9 10 11 12 7 4 10 8 7 7 4 2 4 7 9 13 15 12 11 13 12 13 14 14 14
22 20 18 16 16 15 12 8 3 4 6 9 12 11 3 5 4 5 6 8 5 10 10 10 10 7 8 8 8 12 11 11 13 14 16 14 13 10 9 12 12 11 12 12 10 9 8 10 13 13 11 10 10 10 8 8 10 9 7 7 6 7 6 5 9 10 10 6 6 9 8 5 6 4 2 3 5 6 4 9 10 9 10 10 12 13 14 15
22 19 17 15 15 14 9 1 3 6 9 12 12 4 3 3 5 7 6 8 4 8 9 9 11 10 9 7 11 15 12 10 11 13 16 15 12 8 9 11 12 12 12 13 14 11 9 10 12 12 10 9 9 9 10 9 7 8 9 7 6 9 8 3 6 7 8 7 9 7 8 2 3 4 3 3 5 6 6 2 10 12 10 8 10 12 14 16
21 19 16 14 13 11 4 3 5 6 9 11 8 0 2 3 4 8 6 7 5 7 7 9 9 7 5 7 13 14 10 9 11 13 16 16 12 8 8 9 10 11 12 15 14 11 10 11 12 13 9 10 11 10 12 10 7 9 10 9 10 11 8 6 7 6 7 8 10 8 3 1 4 6 4 2 5 6 3 5 5 10 11 9 10 10 12 14
21 18 14 11 10 6 1 2 3 5 8 7 2 2 2 3 4 7 6 6 6 7 8 10 9 5 7 9 12 10 10 7 7 11 17 16 12 8 8 8 8 9 12 13 10 7 9 8 9 12 11 12 13 10 12 12 9 7 8 11 12 9 7 7 8 7 6 4 6 9 3 3 3 4 2 2 2 4 5 2 3 4 6 9 10 8 10 13
19 16 12 8 6 3 2 2 0 5 5 3 3 1 3 3 5 5 5 7 6 7 9 10 8 7 8 11 14 9 6 9 7 9 14 13 9 6 8 8 7 8 9 9 7 7 9 9 9 12 11 11 11 9 10 11 10 8 9 14 13 9 7 9 8 6 5 6 6 8 6 6 3 1 2 2 1 2 3 1 3 4 4 7 8 7 10 13
16 13 10 6 3 3 4 5 5 5 1 3 0 4 3 3 5 5 6 5 5 6 7 8 5 6 7 11 15 8 4 12 9 9 11 11 10 8 8 8 10 10 9 10 8 7 10 11 11 13 11 9 9 8 8 10 10 6 3 8 11 12 12 10 9 7 6 6 6 8 10 6 3 3 2 2 2 1 1 1 5 6 5 8 8 7 10 12
13 10 7 4 2 3 2 5 8 4 3 2 3 4 4 5 6 5 6 2 4 4 4 6 6 8 9 11 14 8 5 8 7 9 10 10 12 9 6 6 12 10 9 12 9 6 9 9 10 14 11 8 9 10 8 9 10 5 5 1 7 11 13 11 9 8 7 8 7 9 12 6 4 2 2 2 1 1 3 3 6 7 5 7 8 6 8 11
10 7 5 2 2 3 3 6 8 5 3 3 4 5 6 6 5 6 5 3 5 5 4 6 8 11 12 13 11 9 9 4 4 11 10 9 13 10 6 5 11 10 10 14 8 3 7 6 6 10 5 3 7 8 5 4 11 9 5 3 8 9 10 9 7 7 7 8 8 9 12 8 4 1 2 2 2 2 4 5 6 6 6 7 8 9 11 12
7 3 3 1 3 4 6 5 3 2 2 4 5 6 7 5 5 6 3 2 3 6 7 8 11 14 16 15 10 10 11 7 8 12 9 9 12 11 6 3 6 7 9 11 6 3 7 6 7 6 3 2 5 3 2 3 10 9 5 6 8 7 7 7 7 8 8 9 9 11 13 8 4 3 4 5 4 3 2 3 5 8 7 6 9 10 10 9
5 3 1 2 3 6 9 4 3 2 3 5 6 6 6 5 6 5 3 4 4 7 9 9 12 14 15 13 10 10 10 9 11 12 10 10 10 10 9 6 7 9 8 10 10 8 8 7 6 5 1 4 5 3 6 7 8 7 7 9 8 7 8 7 7 8 9 8 7 12 12 6 6 7 8 8 6 4 5 5 3 4 7 6 7 7 6 6
7 6 4 4 5 6 9 7 5 5 4 6 7 6 5 5 3 2 3 5 4 6 8 10 13 16 17 13 10 12 10 8 10 11 11 12 10 9 7 5 7 8 6 10 11 8 7 5 7 7 6 8 8 7 6 6 9 9 8 8 7 6 8 8 8 8 9 8 8 12 10 7 6 7 10 10 8 7 6 5 4 4 5 7 5 3 3 4
8 9 8 8 9 7 8 8 6 5 6 7 6 5 6 3 0 2 1 3 4 5 8 11 14 16 15 11 9 11 10 8 9 8 8 9 8 9 7 6 6 5 6 10 10 8 7 5 8 8 6 11 13 9 4 4 8 11 9 9 8 7 7 7 8 8 8 8 10 11 8 8 8 7 10 11 9 8 7 7 6 5 5 6 7 5 1 2
9 10 10 12 12 8 7 7 5 6 7 6 6 6 5 0 2 1 1 2 5 8 10 12 13 12 11 9 9 10 6 6 9 8 8 9 7 7 7 5 4 5 8 7 8 9 7 5 8 5 5 11 12 5 5 8 7 9 9 10 8 7 7 7 8 9 9 8 9 8 3 6 9 9 10 12 10 8 9 9 8 8 7 7 7 9 5 3
8 8 10 11 8 4 4 5 5 7 7 6 6 4 0 3 2 2 2 1 4 8 11 12 12 11 9 8 8 8 4 4 9 9 6 4 3 3 2 2 1 6 8 4 5 9 7 6 10 7 5 8 6 3 6 8 5 6 9 10 6 4 7 8 9 10 10 9 8 8 8 8 10 9 10 12 11 10 10 10 10 10 10 9 9 8 7 5
8 7 5 3 3 3 3 5 5 7 6 5 4 2 2 3 3 3 1 4 5 5 9 10 8 7 8 8 9 10 8 7 8 7 5 5 4 5 2 1 3 7 8 7 4 4 4 6 10 9 8 7 3 4 8 8 7 5 6 6 4 2 7 7 6 9 11 10 8 11 13 11 9 7 8 11 10 11 10 10 10 10 10 11 10 10 8 4
9 7 3 4 6 3 2 5 6 6 6 5 1 2 3 4 3 3 1 4 4 3 6 6 5 4 7 8 8 11 11 8 8 7 6 6 3 4 4 2 3 6 9 9 5 3 3 4 9 8 6 8 6 6 8 9 10 7 4 5 6 5 6 5 5 7 10 10 7 12 14 10 7 6 8 8 7 9 9 9 9 10 11 10 10 10 11 10
10 8 3 5 5 3 2 5 7 6 6 4 2 3 3 5 5 3 2 2 2 2 6 5 5 5 6 8 8 10 9 7 7 7 4 3 2 3 3 3 4 6 7 10 7 1 4 2 6 7 7 8 8 8 8 9 11 9 6 6 6 6 6 7 7 6 7 10 9 11 11 6 5 6 8 8 6 6 8 8 8 10 11 10 10 10 10 10
9 6 2 5 3 4 5 7 8 6 3 1 2 3 4 6 6 5 3 3 2 3 4 4 7 5 3 8 9 7 5 5 6 3 2 3 4 4 4 4 5 6 6 8 7 2 5 4 4 8 7 7 7 5 3 2 5 7 7 7 6 5 6 6 7 8 7 9 9 9 8 6 5 5 7 7 5 5 6 7 8 9 10 11 12 12 10 10
7 3 3 4 2 4 8 8 5 3 1 3 4 6 4 3 4 5 3 2 2 2 5 2 4 4 5 7 7 6 4 5 5 3 4 5 4 4 4 5 5 6 5 5 5 1 3 5 4 7 7 6 4 5 4 7 5 2 6 7 7 8 7 5 8 9 8 8 6 4 7 7 5 3 6 6 5 5 5 6 8 9 11 11 11 12 12 12
7 2 4 4 3 6 9 5 0 2 2 4 4 6 3 4 2 4 3 2 2 1 3 4 3 3 3 4 5 5 4 4 4 4 5 6 7 7 5 5 6 6 6 3 2 3 4 6 4 4 3 4 8 7 4 7 8 7 6 4 3 6 8 8 8 6 7 10 4 6 7 5 3 4 6 5 5 5 5 6 7 9 10 10 11 13 13 13
3 2 5 3 4 8 8 2 3 0 3 4 2 4 4 3 4 4 2 3 3 2 2 2 4 3 1 2 4 6 5 4 4 5 6 8 8 8 7 7 7 7 6 2 2 3 4 6 3 3 4 5 7 4 1 3 5 8 6 4 5 5 5 6 4 3 5 11 8 6 7 5 4 5 6 6 6 6 5 7 8 8 8 9 12 13 12 13
2 2 4 3 3 8 6 1 3 3 4 4 3 4 4 5 7 6 5 6 4 3 3 4 3 2 2 2 2 4 3 1 3 5 4 6 6 6 7 8 8 6 6 5 4 4 3 3 3 3 5 5 4 5 5 4 5 7 4 1 4 7 9 8 6 4 5 7 6 3 6 7 6 6 7 7 8 7 7 8 8 8 8 9 11 11 11 13
2 2 2 4 2 4 3 3 1 3 5 4 4 5 4 4 6 7 7 7 6 5 4 4 4 3 4 3 3 3 1 1 3 4 5 7 6 5 7 8 8 8 8 9 9 6 3 1 1 3 4 4 5 4 3 5 8 6 2 0 3 6 8 7 6 6 6 4 6 2 7 10 8 8 8 8 8 8 8 8 8 8 9 10 10 10 11 12
3 2 1 3 2 0 3 3 2 2 4 3 2 2 2 4 4 4 5 5 6 6 5 4 3 3 3 3 4 4 2 3 4 5 6 7 6 5 5 6 8 8 8 9 10 7 3 0 1 3 3 2 2 3 4 1 6 7 5 3 2 2 4 6 7 5 5 5 1 7 13 14 13 12 10 9 8 7 7 7 7 7 8 10 10 10 11 12
3 2 2 2 0 1 2 2 2 2 1 0 0 1 0 3 4 2 4 3 3 3 4 4 2 0 3 3 4 5 4 5 6 6 7 6 6 7 4 4 7 6 6 6 5 4 3 2 1 1 3 4 4 5 5 4 2 4 3 3 0 1 3 7 7 3 6 6 3 11 16 15 14 13 11 10 8 7 7 7 7 7 8 9 9 10 12 13
2 2 3 3 3 1 2 3 3 2 3 2 0 1 1 2 2 3 3 2 1 2 2 1 2 2 3 2 2 5 5 6 7 6 6 5 5 7 5 4 5 2 4 3 2 3 5 2 2 2 1 2 3 3 3 3 2 2 0 0 1 2 3 5 4 4 6 3 5 11 14 14 14 12 11 10 8 7 7 6 6 7 7 8 9 11 12 14
1 2 3 1 3 3 4 3 2 3 5 3 1 2 2 3 3 4 4 2 2 2 3 2 4 3 4 2 0 4 3 2 5 6 4 4 4 3 3 4 3 1 1 1 2 2 5 1 2 2 2 1 2 2 1 2 1 2 2 1 2 3 2 2 2 2 2 4 9 12 13 12 11 11 10 9 7 6 5 5 6 6 6 7 9 11 12 13
3 3 2 1 1 3 2 1 1 2 4 1 1 3 3 3 5 4 4 5 3 3 2 2 5 3 4 3 3 5 4 3 5 7 3 2 2 1 1 1 2 2 1 1 1 1 3 0 1 3 4 3 1 2 3 3 4 5 5 3 4 5 3 3 1 1 3 5 7 10 12 11 9 9 9 8 7 6 5 5 6 6 7 7 8 10 11 12
5 5 4 3 2 2 1 1 1 2 3 1 1 2 2 3 6 5 6 7 6 5 4 4 6 4 5 7 7 7 6 5 6 7 3 2 2 2 2 2 2 1 1 1 1 1 3 1 3 5 6 5 5 5 5 4 5 8 7 7 7 6 5 5 2 0 1 5 8 9 9 8 8 9 8 8 8 7 6 5 6 6 6 7 8 8 9 10
6 2 4 5 1 1 2 1 1 2 2 4 4 3 2 5 5 3 4 5 6 7 6 4 4 4 6 9 9 8 7 7 7 6 3 3 3 3 3 2 2 2 2 1 1 1 2 2 3 5 6 4 7 5 4 4 6 7 7 9 9 7 5 3 3 3 2 2 6 6 5 8 9 9 9 9 9 7 6 5 4 5 5 6 6 7 8 9
Wind_Direction
341 338 336 336 335 335 335 335 334 333 332 331 330 328 326 326 324 322 321 318 312 304 300 302 302 307 316 322 314 312 324 303 277 247 236 247 232 229 227 201 197 176 163 177 187 184 187 194 196 191 196 199 212 226 206 215 235 250 257 295 323 25 44 35 47 75 119 131 142 152 155 146 136 152 188 177 160 141 135 133 121 114 123 125 126 133 137 139
338 336 335 334 333 334 333 334 333 332 330 328 327 325 324 323 323 322 320 317 311 303 297 297 297 302 313 320 315 317 320 291 267 258 245 244 236 223 221 208 192 170 170 187 187 186 190 191 188 189 198 197 207 207 188 212 219 249 296 327 350 28 48 66 75 91 134 141 141 149 154 153 150 157 169 159 151 144 139 134 126 120 122 124 129 137 139 142
335 334 334 332 332 332 331 332 331 331 329 326 325 323 323 321 321 320 318 315 309 304 293 291 293 297 311 318 318 322 313 289 269 258 240 233 228 220 210 201 188 172 178 191 187 191 196 192 185 192 204 202 205 191 185 207 210 254 294 311 67 140 100 90 94 97 134 145 139 150 154 157 160 156 165 156 146 147 146 136 132 128 128 132 137 141 143 145
334 333 333 331 331 331 331 331 330 329 328 325 322 321 321 319 318 318 316 314 309 303 292 285 287 293 310 315 323 333 296 280 269 128 130 212 211 208 197 191 185 176 184 195 190 197 203 196 189 201 212 206 203 198 202 190 192 229 209 290 11 140 113 98 105 110 139 143 134 148 142 148 157 146 185 166 150 147 148 140 139 136 135 140 142 146 146 147
334 333 332 331 330 330 331 330 329 329 327 323 319 319 320 318 318 318 315 313 308 301 291 280 283 291 305 313 327 320 283 269 97 86 55 249 199 197 189 185 183 180 192 201 193 201 206 198 195 209 222 215 199 202 213 177 189 242 276 275 295 355 82 102 103 118 139 124 125 151 147 152 145 135 266 157 145 140 144 141 139 141 142 144 146 147 148 149
334 333 331 331 330 329 330 329 329 328 327 324 321 319 318 318 318 316 314 311 305 297 288 276 278 290 301 315 319 280 266 287 82 70 11 196 189 189 182 183 181 185 202 202 195 202 203 199 198 209 223 220 204 205 210 183 192 227 300 263 269 346 56 108 107 124 134 125 138 153 157 175 148 139 61 71 95 119 128 134 137 142 145 145 146 148 150 152
332 331 330 330 329 329 329 327 328 328 328 326 322 321 318 318 316 313 311 307 303 292 281 270 271 289 302 308 298 250 250 278 84 75 19 157 181 179 177 180 180 192 211 202 197 203 200 199 201 208 222 221 209 209 200 187 197 190 234 248 229 13 339 115 120 131 136 135 148 157 172 183 149 131 103 113 204 135 121 130 135 138 144 145 146 150 150 152
331 330 329 329 329 330 329 327 328 327 328 326 323 321 318 317 314 312 309 304 299 285 272 262 264 283 298 291 272 245 242 190 103 84 52 144 167 169 170 176 183 202 218 204 199 202 202 201 202 208 220 221 207 208 193 189 204 208 218 233 211 167 15 119 115 115 126 133 148 162 167 160 128 120 136 180 157 133 132 133 134 139 144 147 148 151 149 153
331 330 328 328 329 331 329 328 327 326 328 326 323 321 318 317 315 312 307 301 291 276 264 250 253 266 279 276 265 258 196 98 104 100 110 141 158 162 166 175 187 206 213 203 200 203 207 203 205 212 233 237 201 201 203 201 208 233 249 258 265 308 86 171 117 118 127 134 151 152 153 146 135 136 147 261 136 140 148 133 138 146 145 148 151 150 150 155
330 328 327 328 330 329 328 329 328 326 327 325 323 320 319 318 316 312 306 302 284 263 251 239 232 225 238 252 259 259 101 99 108 121 133 147 155 160 170 179 188 207 207 199 201 206 212 211 210 221 268 271 204 200 206 212 216 229 250 256 259 318 106 196 134 137 137 137 150 145 146 141 137 150 142 280 195 152 151 139 144 149 145 151 152 149 153 155
328 327 328 330 330 329 328 328 327 326 326 325 324 321 320 318 315 311 306 303 278 250 232 225 211 215 240 253 259 270 108 122 122 130 144 152 158 166 176 182 191 208 204 198 204 208 216 223 225 221 248 260 201 206 207 213 247 220 241 246 219 223 181 173 141 146 141 131 135 136 134 118 42 177 147 205 194 158 156 146 147 151 146 152 152 148 154 156
328 330 331 331 330 329 327 327 326 325 325 324 324 322 320 316 313 309 304 300 271 231 210 210 200 213 250 258 251 324 102 148 136 137 149 153 164 173 178 185 195 207 204 202 206 208 218 230 239 230 245 318 205 203 209 205 229 231 238 237 190 185 185 157 157 148 136 128 134 146 139 139 210 165 164 208 177 159 164 150 147 152 148 152 152 149 156 157
331 334 332 330 329 327 324 323 324 324 323 324 326 323 319 314 313 309 297 284 227 194 196 197 190 216 255 257 196 117 114 151 144 145 155 160 169 175 182 187 191 208 213 211 207 207 221 231 246 242 258 277 219 138 231 206 220 235 235 237 192 192 171 120 182 140 116 134 151 176 163 155 187 152 174 220 179 167 168 155 151 151 150 154 152 151 159 157
333 331 328 328 327 325 321 319 322 322 322 326 326 321 318 315 313 313 283 173 154 164 178 181 188 223 249 257 112 134 156 149 154 158 163 168 167 170 178 181 190 211 216 220 220 210 222 231 247 254 243 250 261 71 224 214 221 233 233 236 214 213 164 125 214 142 122 169 164 194 216 152 172 155 176 226 201 175 162 161 159 151 154 156 153 157 162 157
335 329 325 323 322 322 318 317 321 320 323 329 326 319 318 319 321 56 127 136 145 154 161 177 201 233 246 228 126 142 156 160 171 169 167 168 165 168 171 175 190 202 204 229 232 205 218 231 236 250 231 234 279 267 220 211 214 226 230 227 212 224 170 174 216 145 139 178 170 198 179 145 161 159 182 218 204 171 155 170 164 155 157 157 157 161 162 159
333 329 326 323 320 319 316 316 320 320 325 330 326 319 322 358 66 111 123 134 145 148 162 190 207 231 269 192 134 148 168 178 176 167 168 171 167 168 165 171 183 179 186 215 240 201 211 233 226 237 236 219 233 235 219 208 205 218 229 228 215 212 184 181 173 130 147 167 178 188 106 141 160 174 191 200 199 168 151 169 166 162 160 157 162 162 163 162
329 327 326 324 321 318 315 318 320 319 327 330 327 349 52 85 99 108 114 133 148 157 196 246 225 224 268 78 147 173 183 177 171 168 173 179 171 164 164 174 179 174 181 192 221 207 202 224 220 225 238 225 223 224 224 216 200 210 222 228 223 213 196 164 119 131 156 165 170 148 97 166 165 185 191 182 195 177 159 169 168 168 164 159 165 164 163 163
328 325 325 325 322 318 316 319 319 319 328 326 245 100 101 111 116 122 129 144 168 191 225 255 244 237 231 182 188 187 175 165 165 170 173 179 171 162 171 181 174 175 184 185 200 203 194 207 213 217 223 223 224 216 222 222 202 209 214 213 214 207 170 131 158 158 146 135 161 143 131 164 157 175 177 171 196 192 173 171 161 164 170 164 167 168 164 165
329 328 329 326 322 319 319 321 315 316 328 3 144 116 110 121 144 207 210 183 191 211 237 199 199 271 111 172 186 168 158 157 162 170 172 176 169 165 175 179 174 180 188 182 187 196 195 199 210 219 213 211 218 215 226 237 221 213 209 221 220 182 119 175 217 148 123 138 185 157 146 142 154 174 159 167 196 185 176 187 164 161 171 169 171 171 165 168
335 335 332 326 324 321 321 318 308 314 315 158 161 208 192 213 220 212 206 203 220 253 316 180 197 239 103 150 146 128 142 158 170 175 172 173 169 170 174 176 180 189 199 186 174 187 201 208 208 216 214 207 214 220 234 245 239 223 205 220 232 180 160 189 198 148 133 161 189 151 140 135 155 171 140 162 200 169 151 205 180 164 168 172 176 173 166 168
341 338 333 327 326 323 322 317 307 310 256 183 205 249 251 313 298 153 189 212 225 239 256 222 219 254 77 129 135 142 155 169 177 172 170 175 175 174 173 180 187 192 206 191 166 180 202 221 215 214 220 212 210 218 231 235 230 236 214 209 224 188 162 168 173 164 149 152 205 160 137 133 160 169 132 170 203 176 163 185 188 172 173 174 175 173 165 168
341 338 332 328 328 327 326 316 300 284 221 191 221 247 280 13 354 341 308 250 216 210 229 225 235 262 245 181 161 169 177 171 173 168 168 180 185 184 170 184 199 190 199 193 173 183 199 228 223 211 221 218 208 210 223 225 213 230 219 204 219 178 145 143 155 175 150 126 218 181 143 131 152 155 162 199 216 197 172 172 179 178 178 173 173 175 167 171
339 336 331 328 331 333 324 311 273 210 189 198 226 243 304 20 345 314 291 278 223 186 211 212 215 217 192 202 188 188 197 179 174 166 170 190 195 197 183 188 207 195 193 195 188 192 194 220 223 209 216 215 204 199 207 218 215 228 219 209 220 180 179 165 159 173 143 129 208 166 118 115 135 132 227 242 243 255 213 160 162 177 186 175 173 176 171 174
339 335 333 332 333 334 327 312 173 199 198 218 240 261 5 350 322 315 280 272 253 178 197 199 204 207 185 180 178 197 209 178 177 165 170 199 197 194 204 197 208 204 195 198 199 207 203 210 213 201 202 204 200 200 207 215 211 219 222 220 218 202 207 167 140 164 145 167 202 140 94 97 161 175 225 251 227 251 302 229 174 171 170 172 180 180 176 177
339 336 334 331 333 339 332 186 192 205 201 222 242 153 332 303 323 316 292 265 235 166 176 188 203 203 149 154 176 204 221 173 182 172 170 206 201 181 208 202 215 211 191 197 204 215 214 207 201 188 185 204 210 208 207 215 219 214 218 223 225 225 218 142 137 190 186 183 195 176 128 134 190 199 207 229 221 212 252 287 225 171 154 162 179 181 182 182
337 336 333 327 335 345 283 203 188 198 207 210 176 112 275 314 326 307 290 255 210 154 160 179 190 172 150 175 179 209 233 178 166 163 169 210 215 199 215 193 214 221 189 194 210 222 215 196 187 185 187 209 220 220 208 211 227 218 200 213 229 242 231 183 177 217 219 171 189 211 194 116 177 210 181 169 252 224 193 246 278 190 163 177 175 176 195 190
335 336 334 323 326 315 287 339 78 210 222 158 105 284 285 322 315 298 267 244 196 154 158 161 171 178 174 180 178 200 209 146 139 166 176 207 215 229 238 190 200 225 189 189 213 219 200 168 174 195 199 210 219 221 205 204 227 234 203 204 215 224 226 221 223 245 229 162 179 216 178 136 157 125 58 88 50 279 211 217 266 225 205 211 190 188 219 201
334 336 335 320 304 283 290 311 272 231 238 61 115 274 304 307 292 270 251 230 150 146 157 135 140 186 175 175 192 217 139 139 167 178 176 201 202 219 236 201 207 212 183 193 202 193 188 172 180 201 208 213 215 217 203 198 221 243 205 199 210 216 224 234 234 241 242 204 198 204 180 152 120 109 72 62 103 155 153 231 253 236 217 228 218 210 233 213
332 334 336 318 268 265 275 280 278 290 15 346 268 282 294 281 271 251 253 225 141 158 156 135 153 184 176 175 197 220 174 170 188 158 161 201 209 231 269 232 220 200 179 212 212 168 180 182 190 203 211 217 212 215 205 195 210 195 92 168 230 225 227 236 236 230 236 237 227 204 189 165 89 113 121 66 75 130 129 171 230 238 228 232 230 229 241 218
328 334 349 316 244 267 251 229 250 296 340 279 279 286 269 261 252 231 223 193 170 161 145 161 172 175 178 178 186 197 186 176 122 145 168 195 198 225 280 266 232 199 184 220 235 158 166 170 206 202 195 249 230 217 189 193 227 210 141 197 228 223 226 230 237 237 229 228 226 212 200 178 116 118 174 123 136 151 158 170 184 204 229 239 231 226 224 206
316 327 11 295 256 279 270 223 205 272 288 282 281 265 252 236 240 243 207 162 174 156 158 172 165 168 181 182 177 183 179 154 144 162 177 183 185 205 216 225 233 198 188 209 208 153 162 170 213 197 98 291 256 239 153 224 250 234 188 209 212 203 219 218 217 231 231 225 221 212 202 180 132 150 156 129 120 114 110 116 137 160 178 207 218 216 216 207
285 266 10 333 299 270 272 303 6 299 264 279 270 248 244 224 229 247 187 181 199 173 171 165 158 171 183 179 167 171 172 157 165 176 173 177 185 194 197 198 195 188 196 200 183 172 178 177 186 177 168 245 241 215 191 208 236 226 205 215 212 192 199 211 209 215 225 225 221 213 198 148 100 124 124 108 96 76 57 52 63 124 136 155 203 210 203 223
273 251 264 317 318 262 265 295 302 272 255 261 257 243 250 243 238 268 186 174 177 174 172 161 167 181 182 175 167 168 168 162 176 188 180 181 186 179 195 238 216 205 209 196 183 173 170 152 160 178 195 212 227 230 200 191 205 209 214 215 213 203 194 207 211 209 223 217 205 213 196 144 125 123 112 105 94 80 73 66 43 40 96 126 155 197 186 205
281 257 264 295 297 264 263 279 264 250 244 243 247 244 249 245 219 293 221 135 144 172 178 168 174 186 180 170 170 169 168 164 175 189 178 184 192 172 183 227 226 260 260 204 188 187 185 162 169 180 165 180 211 241 274 274 214 203 219 221 217 222 207 211 215 208 221 209 189 203 196 155 153 130 112 113 102 91 88 79 66 50 57 94 109 107 108 206
297 272 268 271 272 257 250 256 241 230 232 234 243 244 249 234 108 222 47 111 161 165 171 170 170 176 166 159 172 174 171 166 175 191 187 187 191 171 172 182 194 283 286 231 188 191 197 142 135 127 116 174 200 236 279 275 233 194 216 228 224 232 229 229 229 219 221 213 191 188 150 114 138 138 125 118 104 94 85 73 68 61 54 58 84 105 121 189
298 266 254 254 263 274 242 228 210 215 227 245 258 253 320 50 21 357 37 286 211 165 169 176 173 172 162 159 172 174 183 187 185 193 183 147 82 79 104 81 327 301 314 298 217 195 186 126 131 143 150 181 211 253 237 252 252 196 207 218 213 256 269 247 226 222 223 220 194 149 110 114 138 143 133 123 110 94 76 65 63 57 59 55 46 66 96 148
290 250 249 283 1 2 230 200 194 209 231 258 274 320 43 69 3 347 10 282 268 184 179 178 173 182 172 167 170 169 176 181 187 191 168 144 77 34 350 25 342 318 332 325 279 205 177 133 151 176 169 167 214 246 232 255 274 230 205 229 230 270 290 279 239 221 215 215 189 141 138 150 154 149 138 127 111 97 77 59 59 52 51 57 47 36 36 48
295 261 247 48 40 6 222 194 202 213 245 257 200 41 22 66 36 5 348 280 267 221 220 186 165 214 192 175 166 165 174 179 184 185 166 168 135 27 322 316 14 342 325 312 297 192 208 143 148 177 169 158 184 216 218 235 257 268 311 299 261 224 230 247 253 226 206 213 194 148 151 158 148 144 136 120 102 97 86 61 54 52 47 50 53 44 31 22
280 256 208 81 41 332 251 220 227 231 254 260 145 108 52 67 58 38 24 281 238 289 275 184 169 242 198 167 155 157 182 192 178 179 164 159 120 51 358 338 359 352 325 307 311 222 236 211 148 171 161 156 182 203 204 206 222 249 285 267 243 240 223 211 231 233 207 217 204 158 148 132 110 112 107 102 86 78 81 68 52 48 46 46 49 46 42 34
263 249 139 84 18 311 265 243 247 247 233 250 77 88 67 64 63 60 40 295 272 329 322 164 182 233 156 150 156 155 190 189 157 159 125 106 99 83 50 10 342 346 339 298 296 276 245 250 152 155 161 168 180 189 218 241 209 220 238 223 203 225 231 215 232 242 228 222 210 179 156 118 100 104 99 101 96 71 71 77 66 50 42 43 47 43 40 44
269 268 101 80 358 294 268 251 251 268 159 95 69 73 48 6 41 67 66 328 304 340 346 346 185 181 145 151 159 155 169 155 137 125 114 102 70 75 60 15 339 333 326 265 249 243 258 250 175 152 176 186 125 78 2 341 343 294 242 224 204 210 217 216 227 231 238 244 234 178 150 121 97 100 103 106 103 82 71 75 73 60 46 42 47 44 39 41
269 290 75 47 323 275 269 257 216 327 56 79 67 74 41 306 7 51 58 19 348 18 358 1 50 107 147 147 147 159 157 135 133 117 99 78 46 50 49 5 332 313 306 260 166 41 327 268 218 138 135 123 90 67 357 334 334 317 290 285 269 224 218 220 219 217 238 248 234 104 114 115 96 103 113 116 101 83 71 69 69 62 51 46 49 47 40 40
269 15 79 58 298 274 274 241 133 23 72 86 67 65 38 354 34 41 33 26 8 49 90 62 53 48 87 120 150 152 122 78 84 91 92 88 64 49 36 3 339 322 318 320 95 25 313 263 237 86 83 92 94 95 349 340 306 273 259 284 295 271 261 262 271 315 267 244 224 151 133 128 127 124 125 132 121 108 93 76 68 62 53 49 52 49 40 37
346 17 92 91 271 268 278 251 146 128 103 124 135 105 67 29 29 33 42 36 21 49 79 73 62 60 90 114 152 132 121 107 92 88 94 101 78 46 35 16 359 4 14 14 15 354 306 242 222 197 179 170 162 176 183 186 228 242 229 258 284 285 291 289 292 299 269 263 278 243 147 126 132 138 135 134 123 109 97 81 72 66 57 51 53 53 44 39
311 246 113 93 223 256 313 359 60 123 130 143 137 127 122 80 36 24 37 40 26 33 62 65 59 80 106 135 145 124 150 192 117 101 98 103 95 63 47 29 17 35 38 5 338 322 305 273 264 239 209 197 183 175 186 192 197 207 199 199 262 273 284 283 273 261 244 267 320 350 123 125 133 134 126 121 111 99 91 82 74 69 63 57 52 49 48 45
292 240 131 107 166 189 45 21 7 104 139 152 133 125 127 118 91 27 13 30 33 32 48 59 61 104 121 145 146 134 124 118 134 145 124 116 113 82 52 43 45 40 15 342 325 315 302 318 1 341 350 18 53 46 7 284 181 172 172 183 226 281 285 263 253 269 274 264 282 110 124 133 139 136 126 116 109 100 91 82 76 71 65 63 59 55 55 52
300 322 16 32 59 99 109 96 21 43 87 23 90 124 83 124 125 80 4 11 36 29 36 41 5 166 136 141 130 109 94 105 123 129 114 109 112 106 84 59 66 37 329 309 318 318 282 209 165 323 1 23 20 30 15 353 96 121 142 167 184 336 284 252 247 313 330 286 197 133 133 137 137 136 127 117 108 98 93 85 77 72 65 63 61 59 60 55
324 19 40 345 310 358 67 41 24 63 85 68 31 222 153 125 114 78 51 54 63 326 327 74 53 35 76 102 134 117 108 110 113 112 113 116 128 136 131 90 79 41 291 294 10 320 281 227 143 246 270 30 7 13 4 348 38 72 42 231 289 274 259 255 265 335 331 294 154 142 140 133 132 134 124 114 107 93 87 85 81 79 74 71 62 53 54 53
324 68 77 304 305 12 54 36 7 71 80 72 66 51 64 96 89 59 35 44 101 10 328 123 109 75 75 43 21 126 111 108 125 122 118 124 142 168 145 117 103 93 288 343 50 305 281 352 94 255 244 90 357 341 301 295 267 225 229 218 266 265 252 265 299 1 27 110 130 144 141 127 126 131 123 118 112 87 71 73 78 70 60 69 68 53 47 48
1 32 36 222 79 45 72 111 258 130 104 113 142 74 45 69 93 83 25 6 70 84 15 110 107 96 106 90 80 100 63 11 115 126 122 122 144 254 38 80 68 60 29 355 64 242 272 17 123 249 233 182 203 257 226 245 257 237 213 199 229 232 215 227 247 120 153 148 141 145 139 124 116 119 123 130 124 102 87 82 77 59 38 43 57 52 46 44
8 25 336 294 92 44 297 77 274 202 133 126 104 96 82 80 88 88 55 28 41 74 71 93 98 91 100 95 80 79 68 51 88 106 94 32 40 46 42 22 351 22 109 113 83 236 256 196 157 233 239 180 167 208 205 208 242 239 224 211 212 215 216 216 198 131 220 172 159 160 155 140 130 131 139 144 133 118 107 87 78 73 55 43 44 43 40 41
359 30 312 295 141 155 259 157 192 268 83 63 46 52 74 93 90 70 56 50 50 59 60 72 100 110 106 97 78 61 60 65 72 79 69 39 45 66 64 49 8 359 54 115 220 241 265 247 174 218 243 170 153 187 195 195 226 236 224 206 203 209 212 193 137 72 7 205 184 180 149 129 140 159 164 154 139 124 111 92 76 77 73 62 55 45 36 34
Height
803 802 800 798 797 795 794 793 791 790 789 789 787 786 786 785 784 783 782 780 779 778 778 777 776 775 774 774 773 772 771 770 769 768 765 759 757 758 758 759 759 761 762 763 763 762 762 762 760 760 759 758 759 756 754 753 753 760 771 784 786 784 784 778 776 776 775 777 777 774 772 776 783 780 770 767 768 766 768 766 764 762 761 763 769 776 781 787
803 801 799 798 796 794 793 792 791 790 789 788 786 786 785 784 783 782 781 780 779 778 777 776 775 774 774 773 772 772 771 769 768 763 757 755 756 756 757 758 759 760 761 761 760 759 760 760 758 758 759 759 758 754 757 755 754 766 773 779 783 780 778 772 771 773 772 775 776 774 773 774 777 774 767 773 776 770 774 773 769 770 768 768 772 778 783 787
802 800 799 797 796 794 793 791 790 789 788 787 785 785 784 783 782 781 780 779 778 777 776 776 774 774 773 773 772 771 771 768 764 756 750 752 754 754 755 756 758 759 760 759 759 758 758 757 756 757 758 760 757 754 762 760 758 768 775 784 782 772 772 770 768 771 769 770 775 776 773 773 771 766 767 774 776 775 777 775 775 778 775 775 775 778 783 787
801 800 798 796 795 794 792 791 790 788 787 786 784 784 783 782 781 780 779 778 777 776 775 775 774 773 773 772 772 771 770 768 758 748 748 751 751 752 754 755 757 759 759 758 759 758 756 755 755 756 758 763 758 755 762 760 761 767 771 780 770 758 766 769 767 769 768 767 774 778 776 778 770 766 772 773 778 781 776 771 774 777 775 776 777 778 782 787
800 799 797 796 795 793 792 791 789 788 786 785 784 783 781 780 779 779 778 777 776 775 774 774 773 773 773 772 772 771 771 768 753 745 749 749 750 751 752 754 757 758 758 759 758 756 755 753 755 757 759 762 759 759 761 754 756 765 767 767 757 749 760 764 763 766 767 769 776 781 782 780 773 774 777 774 780 779 768 765 767 770 771 773 775 778 782 786
800 798 796 795 793 792 791 790 788 787 785 784 783 781 780 779 778 777 776 775 775 774 774 773 773 772 772 772 771 771 772 764 748 746 750 747 749 750 752 755 756 759 759 758 756 755 755 753 758 762 761 760 760 761 759 750 752 768 773 763 752 747 752 757 761 765 768 773 779 782 780 775 776 785 782 777 779 770 758 759 762 765 767 769 773 777 782 786
799 797 796 794 792 792 790 789 788 786 785 783 782 780 779 778 777 776 775 774 773 773 773 772 772 772 772 771 771 770 767 756 744 748 749 747 750 750 753 756 757 760 758 757 755 755 755 756 761 761 761 761 760 758 755 751 750 765 774 761 750 748 746 747 754 761 766 775 778 776 778 775 779 789 786 781 776 765 757 757 760 764 766 770 775 778 781 785
799 797 795 793 792 790 789 788 787 785 784 782 781 779 778 777 776 774 773 773 772 772 772 771 772 771 771 771 770 765 759 750 746 749 749 749 751 751 756 758 759 761 757 755 753 753 754 758 759 756 762 760 755 756 753 755 756 760 765 755 746 745 743 741 747 759 763 772 775 774 779 778 778 785 786 781 772 764 759 759 761 765 768 772 776 778 782 785
798 796 794 793 791 789 788 787 785 784 782 781 780 778 776 775 774 773 772 771 770 771 771 771 771 771 772 770 767 762 753 747 747 749 749 751 752 754 757 758 760 760 756 755 752 753 755 756 756 751 757 754 750 755 753 760 764 757 755 751 747 745 742 741 748 762 766 770 773 778 785 781 776 780 785 781 772 766 761 761 765 767 771 774 776 779 782 785
797 795 794 792 790 789 787 785 784 782 781 780 778 776 775 773 772 771 770 769 769 769 770 771 771 770 772 769 766 762 751 747 750 750 751 753 754 756 758 758 760 758 755 753 751 752 752 752 749 743 750 751 749 753 753 759 759 751 749 748 747 746 743 741 749 759 764 770 774 782 789 782 775 780 789 784 771 767 765 766 767 769 773 775 776 779 782 785
797 795 793 791 790 788 786 785 783 781 780 778 776 775 773 771 770 769 768 768 767 768 769 770 770 770 771 768 766 759 749 749 751 752 754 754 755 756 757 758 758 757 754 752 752 751 749 748 743 744 754 752 749 753 752 751 750 747 748 749 747 746 745 743 749 753 758 771 775 779 789 787 783 785 788 782 771 769 769 769 769 771 774 775 776 779 782 784
796 795 793 791 789 787 785 784 782 781 779 777 775 773 771 770 769 768 767 766 766 767 768 769 770 770 769 767 761 754 748 750 752 753 755 754 756 756 756 758 757 756 753 751 752 750 750 747 745 751 753 749 752 758 752 744 747 748 748 753 751 748 751 748 749 751 757 771 772 776 793 797 792 788 783 777 772 771 771 771 771 772 774 775 777 780 783 784
796 794 792 790 788 786 785 783 781 780 777 776 774 772 770 769 767 766 765 765 766 767 768 769 769 769 770 763 752 750 750 751 752 753 755 755 755 756 756 757 756 756 753 752 751 750 751 749 749 750 748 751 753 752 747 742 748 752 748 752 754 758 761 752 748 753 765 773 767 774 797 802 793 786 781 777 773 773 775 773 772 773 774 775 778 782 784 784
795 793 791 789 787 786 783 781 780 778 776 775 773 771 769 767 766 765 764 765 766 767 768 769 769 770 769 759 748 750 752 751 753 753 754 754 754 755 755 756 756 756 754 753 752 751 753 751 751 750 747 750 746 744 750 750 752 756 755 752 754 767 769 756 749 757 775 776 762 773 798 800 792 786 782 779 775 775 777 774 771 773 775 776 778 783 785 784
794 792 790 788 786 784 782 780 779 777 776 774 772 770 768 767 766 764 765 766 766 767 768 768 769 768 765 755 748 751 752 751 753 752 753 753 753 754 754 756 757 756 756 755 753 753 754 752 754 757 752 746 747 755 759 757 755 756 765 765 757 764 769 759 749 755 776 777 765 777 797 798 790 784 781 780 776 775 780 776 771 773 774 777 779 781 784 785
793 791 789 787 785 783 781 779 777 776 775 773 772 770 768 767 766 766 766 766 767 768 768 768 767 766 763 754 748 751 752 750 751 752 753 753 753 754 754 756 756 757 758 757 755 754 755 754 754 756 753 750 756 762 761 762 763 758 764 770 762 763 769 764 755 755 767 775 773 779 792 797 790 783 779 777 771 772 780 778 773 774 773 776 779 780 782 784
791 789 787 785 783 781 779 778 776 775 774 772 771 770 769 768 767 767 767 767 768 767 767 766 762 763 761 751 749 751 748 747 750 751 753 752 753 753 755 756 756 757 757 757 758 756 756 757 757 756 754 755 756 758 767 772 771 765 761 765 763 759 765 771 769 763 764 775 781 781 788 794 787 782 778 774 768 768 777 780 776 775 773 775 777 778 781 784
790 788 785 783 781 780 778 776 775 774 773 772 771 771 770 768 768 768 767 768 768 768 769 764 762 767 760 750 749 748 743 746 749 750 752 752 752 754 755 755 755 757 759 761 760 758 760 758 758 761 760 760 756 758 770 768 762 766 764 766 764 758 765 775 775 767 768 783 789 788 793 791 780 777 778 776 772 771 775 776 775 776 775 775 776 777 780 783
789 786 784 781 779 778 776 775 774 773 772 771 771 771 770 770 769 768 767 766 766 765 765 760 759 762 755 744 741 740 741 745 748 750 752 752 753 753 754 754 755 758 763 766 765 760 761 761 763 767 765 763 757 752 756 751 748 754 758 762 760 762 772 773 768 764 770 785 786 785 790 787 779 773 777 780 772 772 778 776 773 775 776 775 776 776 778 782
786 784 782 780 778 776 775 774 773 772 772 771 772 772 770 768 767 765 763 762 759 754 752 751 749 748 744 739 737 740 744 747 748 749 750 751 752 753 753 755 757 761 763 764 765 758 758 767 769 766 759 754 750 745 744 741 741 744 753 759 755 762 776 773 767 763 771 787 782 775 780 783 780 774 778 782 776 776 783 782 774 773 776 776 775 775 777 780
784 782 780 778 776 775 773 773 771 771 771 770 772 771 764 761 762 762 759 756 750 746 748 746 742 741 740 738 739 742 745 748 747 746 750 750 749 755 757 757 763 768 761 756 759 756 759 769 765 754 748 743 742 743 742 742 745 746 750 758 754 755 763 762 761 759 765 783 781 771 778 784 779 774 776 781 781 781 781 781 777 773 774 775 774 775 777 778
782 781 778 777 775 773 772 771 770 770 770 770 771 766 758 756 760 759 758 755 746 742 745 744 743 744 741 740 740 740 745 750 750 747 748 748 749 755 757 758 764 765 756 753 759 764 769 769 755 743 739 737 739 741 744 747 751 750 747 754 756 750 752 754 754 752 756 776 782 773 777 784 778 774 775 775 774 772 770 771 773 773 773 773 776 776 776 779
781 779 777 775 773 772 771 769 770 769 769 769 767 761 757 759 760 758 758 758 748 742 743 745 747 746 744 744 741 741 746 749 752 749 746 749 750 750 754 759 760 758 755 756 760 768 772 763 745 738 737 740 745 745 750 754 753 752 750 756 759 750 754 761 757 749 750 766 773 769 779 785 780 779 778 773 769 765 766 770 771 773 775 773 774 775 776 779
780 777 776 774 772 772 769 769 770 768 768 767 763 759 760 761 761 759 758 756 750 743 740 741 742 742 742 741 740 743 744 742 747 748 745 747 748 748 751 754 756 756 754 753 755 760 761 748 735 737 741 745 753 753 755 760 758 755 751 755 759 750 749 755 754 751 753 760 758 765 793 800 787 788 785 774 770 769 771 777 778 776 777 777 774 773 775 776
778 777 775 773 772 770 769 770 768 766 766 764 761 760 761 762 761 760 759 758 754 745 741 741 740 738 736 738 740 739 739 739 740 741 742 743 744 748 750 747 751 755 753 752 754 756 750 737 731 741 749 750 756 757 756 759 762 759 751 749 752 749 745 748 753 756 763 769 754 757 800 813 791 787 788 779 776 776 777 783 780 773 776 780 778 776 776 774
777 776 774 773 772 770 770 768 764 765 763 759 760 761 762 762 761 761 762 762 756 747 746 746 743 741 738 740 739 737 744 744 735 734 740 742 737 742 750 747 746 749 747 749 752 750 742 732 732 745 754 756 758 757 751 751 761 762 750 743 745 746 746 748 753 757 765 774 757 747 784 813 800 789 788 785 786 783 780 786 785 776 776 779 777 780 779 775
777 775 773 773 771 771 770 765 764 764 761 759 760 762 762 762 761 761 765 770 759 745 746 746 743 742 739 738 735 742 755 748 738 737 738 741 737 737 748 749 747 746 739 747 759 749 737 740 745 748 754 759 759 756 747 745 759 759 740 737 746 749 752 750 751 757 756 761 760 749 764 797 809 802 794 792 795 794 788 791 793 784 781 778 776 783 783 776
776 774 773 772 771 771 769 766 765 761 759 761 761 763 762 761 762 761 770 782 762 738 740 744 741 739 735 736 735 740 745 741 747 748 735 738 741 740 750 749 747 746 736 749 764 747 735 747 754 752 756 759 755 749 742 743 756 751 733 736 744 746 751 749 751 757 749 754 767 756 753 788 817 811 800 799 800 801 798 796 796 789 785 783 779 782 782 776
775 774 773 772 771 770 768 768 765 760 761 762 762 763 761 761 763 761 774 782 758 736 739 742 742 741 738 740 740 740 739 738 746 745 737 741 740 740 749 744 740 744 741 745 751 743 737 743 746 749 756 754 747 741 737 743 752 741 735 744 745 744 748 747 751 753 752 764 774 758 750 788 826 818 805 808 807 805 805 799 795 790 786 785 781 780 782 779
775 773 772 771 770 769 768 767 764 763 763 763 764 763 761 763 764 771 786 777 752 741 740 740 744 744 743 747 747 743 742 742 741 741 744 745 741 742 743 736 734 741 747 746 746 745 739 738 739 743 749 747 741 738 736 742 743 734 741 754 754 752 750 751 752 750 765 778 769 755 748 774 822 828 808 806 803 799 802 799 796 793 789 788 785 783 782 778
774 773 772 771 770 768 766 763 762 763 764 764 764 761 762 764 764 780 785 759 745 747 742 742 744 741 743 748 749 746 744 746 744 746 751 747 747 749 746 745 743 746 755 755 755 753 747 750 747 739 742 744 744 745 743 744 741 738 750 759 764 766 761 762 762 759 780 786 763 751 745 762 812 828 804 794 789 785 789 792 792 791 791 791 786 780 775 771
773 772 771 770 769 767 765 762 762 764 764 764 764 760 763 770 772 777 768 749 752 754 742 742 743 740 743 743 746 747 745 748 745 745 750 750 753 752 750 753 751 758 769 761 757 760 756 755 749 744 745 745 752 758 754 752 750 751 757 760 769 777 778 785 781 774 781 777 758 745 746 773 805 804 790 789 786 781 782 783 783 780 783 788 784 777 774 770
772 770 770 769 767 766 765 763 763 764 764 764 763 759 762 777 779 765 752 751 755 747 736 740 740 738 740 743 747 745 744 748 745 741 742 744 749 750 748 747 741 752 763 754 756 764 763 758 753 756 754 747 753 761 761 760 758 760 760 761 771 777 791 802 789 780 779 767 754 740 748 791 809 791 783 786 782 780 779 778 779 775 775 780 781 777 777 777
770 769 768 767 765 764 763 763 763 763 764 763 763 764 770 780 773 755 749 751 747 740 737 738 738 736 736 743 746 741 745 750 744 742 745 745 750 753 754 750 742 747 750 748 753 760 770 772 761 758 756 750 752 752 754 755 753 754 748 749 760 762 777 791 780 778 776 762 754 746 755 792 808 792 779 777 776 776 776 776 776 774 771 772 777 780 782 781
769 767 767 765 763 762 761 763 762 762 763 761 762 769 776 775 764 755 754 748 741 742 739 734 737 743 744 747 747 740 744 752 748 746 748 748 750 752 753 752 749 751 752 752 750 749 762 768 755 750 749 748 752 749 746 752 754 748 740 747 755 746 749 762 758 754 756 758 759 759 769 783 788 783 771 770 777 774 775 777 776 778 776 773 776 781 785 785
767 765 764 763 760 760 761 761 761 762 761 760 766 769 766 764 760 756 754 746 742 742 742 741 741 748 755 754 752 747 744 749 750 748 749 750 752 752 754 756 754 753 754 755 750 743 756 766 756 753 753 747 751 750 745 753 757 748 747 752 744 731 736 751 753 741 744 763 762 764 785 788 784 786 773 770 779 778 779 781 780 782 781 780 781 780 783 785
766 763 762 759 758 760 760 759 761 762 759 763 773 769 757 756 757 753 750 748 742 736 742 751 748 748 757 756 755 754 750 750 751 751 756 760 763 764 761 759 757 753 751 754 750 737 747 767 760 753 760 753 746 750 746 743 747 749 754 747 732 734 743 752 761 755 754 766 759 765 791 794 797 801 782 774 782 784 786 786 785 787 786 788 790 786 784 781
764 761 759 757 758 759 757 759 759 759 759 764 771 765 754 754 754 750 749 747 743 740 744 752 751 748 752 755 755 751 750 755 753 753 759 763 768 771 767 762 758 753 749 750 751 739 742 767 766 752 759 756 744 753 758 747 741 745 749 740 739 758 765 762 769 767 764 766 763 773 787 786 796 800 787 785 787 785 789 791 791 793 791 793 794 792 789 784
764 761 758 755 757 757 756 758 756 755 763 767 765 762 756 754 752 749 748 746 745 749 749 748 749 748 746 749 754 751 751 755 753 754 761 765 771 772 768 767 763 757 752 749 752 745 741 762 773 756 751 755 752 757 764 759 746 744 749 743 741 753 757 757 759 756 760 765 765 780 794 795 798 796 793 796 791 787 792 794 795 796 794 794 794 795 794 790
758 759 758 754 755 757 754 755 753 755 764 764 759 758 756 754 752 748 747 747 747 750 750 746 749 750 747 747 751 751 751 752 751 756 762 765 772 775 771 771 769 762 757 753 753 751 746 756 770 764 753 757 761 758 760 762 755 754 759 755 752 751 744 748 751 741 747 757 758 776 805 812 800 792 797 800 795 792 792 793 797 798 796 795 795 796 795 793
754 757 758 753 754 755 751 753 754 752 755 757 756 759 760 757 754 751 748 747 747 747 746 744 746 749 750 751 752 752 752 753 755 759 763 765 771 777 774 772 772 767 762 760 756 756 757 756 761 766 763 763 765 758 757 760 757 758 758 751 752 752 750 765 771 749 739 746 747 767 807 819 801 791 796 797 795 794 790 791 795 798 799 798 795 797 796 795
756 759 758 753 754 753 750 753 754 750 753 759 760 760 762 758 755 754 751 748 748 746 745 746 747 749 751 752 753 752 753 757 758 760 765 769 772 776 774 770 770 766 763 763 758 756 761 757 755 762 764 763 763 760 758 758 755 756 755 749 748 748 751 768 776 761 749 746 744 767 810 824 804 793 796 796 796 795 792 792 794 797 800 798 796 798 797 796
756 756 754 753 754 750 751 757 758 756 760 763 761 760 761 759 756 756 754 752 752 750 750 752 752 752 753 752 753 754 758 763 765 764 769 774 776 776 774 769 768 765 763 765 762 760 762 761 763 770 769 764 763 761 759 759 760 762 759 755 756 755 751 755 760 762 762 754 748 772 814 825 807 796 797 796 796 796 794 793 796 799 800 797 798 800 800 798
754 753 750 752 753 750 753 758 759 762 764 763 763 764 763 761 760 759 758 758 755 753 756 757 755 754 755 753 754 757 762 770 772 768 769 775 778 777 774 770 769 769 771 774 772 769 769 768 770 781 785 781 780 778 774 771 769 767 762 761 764 762 758 759 760 764 772 766 752 771 812 823 807 799 798 795 795 796 795 795 797 800 801 799 800 802 801 801
756 756 751 750 750 750 753 753 754 761 766 765 766 766 766 766 765 763 762 762 758 756 759 760 756 755 756 756 758 760 760 766 773 772 771 776 779 777 775 774 773 772 775 779 774 771 774 772 774 787 796 797 796 792 783 775 769 767 767 770 771 767 766 769 768 771 780 774 763 781 814 820 808 803 802 799 799 801 799 798 799 799 800 801 802 802 802 802
759 760 757 753 749 749 753 752 752 759 763 765 768 767 767 770 769 764 764 764 763 759 760 761 758 758 760 760 763 766 762 762 769 772 773 777 780 779 777 776 776 777 779 781 774 771 775 775 778 788 793 792 793 787 773 765 765 771 775 775 773 770 770 770 772 778 778 772 777 794 808 814 813 810 807 805 805 806 804 803 803 801 801 802 802 803 803 804
760 762 762 762 759 756 757 756 756 761 762 765 771 770 769 770 770 768 767 767 766 764 764 765 762 762 766 765 767 771 769 766 769 772 775 778 779 780 779 776 778 781 782 780 774 773 779 780 779 784 786 784 783 779 772 767 770 775 778 778 776 774 773 773 776 780 776 777 793 799 797 807 815 810 809 811 809 809 809 807 806 805 803 802 803 803 804 805
762 764 763 765 767 765 763 763 762 763 764 767 770 771 771 772 773 773 771 769 767 766 768 771 769 766 767 767 770 775 777 776 778 779 780 781 781 781 781 779 780 781 780 778 775 776 782 781 778 780 784 782 779 778 776 775 776 779 779 780 779 777 777 778 778 778 776 782 794 795 794 804 809 807 810 812 811 812 812 808 806 806 805 804 804 805 805 806
763 765 763 765 768 768 768 768 765 765 768 771 772 773 773 774 776 776 772 772 773 770 770 776 776 772 771 770 771 779 783 783 786 787 783 782 782 780 782 784 782 779 778 779 779 780 783 784 781 782 785 785 783 782 780 779 782 783 782 782 782 779 778 779 779 778 778 783 786 788 796 802 802 805 811 811 812 814 813 810 809 808 807 805 805 807 808 807
767 769 769 767 768 769 769 768 767 768 771 774 776 776 775 776 779 778 774 774 778 777 773 776 778 774 773 774 774 781 784 781 784 787 785 784 785 782 783 786 784 781 782 783 783 782 786 790 787 784 788 790 787 784 783 784 785 784 784 784 783 782 781 782 782 780 781 786 785 788 802 808 804 806 811 812 814 816 816 817 815 814 813 808 807 809 810 810
771 773 772 770 772 774 772 770 768 768 771 773 776 777 777 778 778 779 778 776 777 779 776 777 779 777 776 778 780 783 783 779 780 783 782 784 784 783 784 785 784 786 787 787 787 784 786 790 789 789 793 792 788 787 786 786 787 788 788 787 785 785 784 782 782 781 783 789 792 796 807 812 808 808 812 813 814 818 820 821 819 819 818 815 814 814 812 811
775 774 773 771 774 776 773 770 769 771 774 777 779 779 779 779 778 780 785 782 777 778 778 778 779 780 782 788 789 786 782 780 782 781 781 782 781 781 784 785 784 786 787 788 790 787 786 788 789 791 794 790 787 789 788 790 798 798 787 781 783 784 783 783 785 786 786 788 794 801 805 807 806 807 810 811 814 819 822 823 823 822 820 819 819 818 816 816